Regional Weather Roundup
Issued by NWS

Home | Current Version | Previous Version | Text Only | Print | Product List | Glossary Off
Versions: 1 2 3 4 5 6 7 8 9 10 11 12 13 14 15 16 17 18 19 20 21 22 23 24 25 26 27 28 29 30 31 32 33 34 35 36 37 38 39 40 41 42 43 44 45 46 47 48 49 50

000
ASUS43 KBIS 161910
RWRND

NORTH DAKOTA REGIONAL WEATHER ROUNDUP
NATIONAL WEATHER SERVICE BISMARCK ND
100 PM CST SAT DEC 16 2017

NOTE: "FAIR" INDICATES FEW OR NO CLOUDS BELOW 12,000 FEET WITH NO
SIGNIFICANT WEATHER AND/OR OBSTRUCTIONS TO VISIBILITY.


NDZ001>003-009>011-017-162000-
NORTHWEST NORTH DAKOTA

CITY           SKY/WX    TMP DP  RH WIND       PRES   REMARKS
WILLISTON      MOSUNNY   36  23  59 W8        29.95S
MINOT          SUNNY     40  28  62 W14       29.89S
MINOT AFB      SUNNY     38  28  67 W12       29.88S
$$

NDZ018>021-031>035-040>046-162000-
SOUTHWEST NORTH DAKOTA

CITY           SKY/WX    TMP DP  RH WIND       PRES   REMARKS
BISMARCK       PTSUNNY   40  33  76 NW12      29.94R
DICKINSON      MOSUNNY   33  25  72 NW10      29.92S
GARRISON         N/A     38  29  70 NW14      29.90F
HETTINGER ARPT MOSUNNY   35  25  66 NW13      29.94F
$$

NDZ004>008-012>016-024-026-027-054-162000-
NORTHEAST NORTH DAKOTA

CITY           SKY/WX    TMP DP  RH WIND       PRES   REMARKS
GRAND FORKS    CLOUDY    28  24  85 NW7       29.89S
GRND FRKS AFB  CLOUDY    30  25  81 NW3       29.88S
DEVILS LAKE    CLOUDY    31  26  82 NW12      29.89R
$$

NDZ022-023-025-028>030-036>039-047>053-162000-
SOUTHEAST NORTH DAKOTA

CITY           SKY/WX    TMP DP  RH WIND       PRES   REMARKS
FARGO          CLOUDY    30  26  85 SW5       29.91R
JAMESTOWN      PTSUNNY   40  32  73 N16       29.88R
$$





USA.gov is the U.S. government's official web portal to all federal, state and local government web resources and services.